Regional Weather Roundup
Issued by NWS

Home | Current Version | Previous Version | Text Only | Print | Product List | Glossary On
Versions: 1 2 3 4 5 6 7 8 9 10 11 12 13 14 15 16 17 18 19 20 21 22 23 24 25 26 27 28 29 30 31 32 33 34 35 36 37 38 39 40 41 42 43 44 45 46 47 48 49 50
000
ASUS43 KOAX 180810
RWRNE

WEATHER ROUNDUP FOR NEBRASKA
NATIONAL WEATHER SERVICE OMAHA NE
300 AM CDT THU SEP 18 2014

NOTES: SATELLITE DATA IS BEING USED TO AUGMENT CLOUD COVER ABOVE
       12000 FEET.
       "FAIR" INDICATES FEW OR NO CLOUDS BELOW 12,000 FEET WITH NO
       SIGNIFICANT WEATHER AND/OR OBSTRUCTIONS TO VISIBILITY.

  * THESE STATIONS DO NOT REPORT WEATHER SUCH AS RAIN...SNOW OR FOG.

NEZ001>004-019>022-054>056-180900-
NEBRASKA PANHANDLE

CITY           SKY/WX    TMP DP  RH WIND       PRES   REMARKS
SCOTTSBLUFF    CLEAR     55  54  96 CALM      29.98S
ALLIANCE       CLEAR     60  57  89 S8        29.97S
CHADRON        CLEAR     52  50  93 SW6       29.92F
KIMBALL        CLEAR     53  43  69 W3        30.02S
SIDNEY         CLEAR     56  54  93 S7        30.01F
$$

NEZ057>060-069>072-079>082-180900-
SOUTHWEST NEBRASKA

CITY           SKY/WX    TMP DP  RH WIND       PRES   REMARKS
NORTH PLATTE   PTCLDY    57  56  96 E7        29.97S FOG
IMPERIAL       CLEAR     64  62  93 S9        29.98R
LEXINGTON        N/A     58  56  95 CALM      29.98R FOG
MCCOOK         MOCLDY    62  61  96 NE6       29.96S FOG
OGALLALA       CLEAR     63  61  94 CALM      29.97F
$$

NEZ005>010-023>029-035>040-094-180900-
NORTH CENTRAL NEBRASKA

CITY           SKY/WX    TMP DP  RH WIND       PRES   REMARKS
VALENTINE      CLEAR     61  55  81 SE13      29.96F
AINSWORTH      PTCLDY    56  55  95 SE7       29.97F
BROKEN BOW     FOG       57  56  96 E5        29.98R VSB 1/2
O`NEILL        MOCLDY    62  58  87 SE3       29.97F
ORD            MOCLDY    54  53  97 CALM      29.97R FOG
THEDFORD         N/A     57  56  97 CALM      29.99S
$$

NEZ041-046>049-061>064-073>077-083>087-180900-
SOUTH CENTRAL NEBRASKA

CITY           SKY/WX    TMP DP  RH WIND       PRES   REMARKS
GRAND ISLAND   CLEAR     56  55  97 E6        29.97S FOG
AURORA         FOG       56  56 100 CALM      29.98R VSB 1/2
HASTINGS       CLEAR     63  59  87 SE9       29.96S
HEBRON         FOG       56  55  94 CALM      29.96S VSB 1/4
HOLDREGE       MOCLDY    58  57  95 CALM      29.97R FOG
KEARNEY *      MOCLDY    55  55 100 E5        29.97S VSB 1/2
YORK           PTCLDY    59  59 100 SE6       29.97S
$$

NEZ011>018-030>034-042>045-180900-
NORTHEAST NEBRASKA

CITY           SKY/WX    TMP DP  RH WIND       PRES   REMARKS
NORFOLK        CLEAR     57  56  96 SE5       29.97S
ALBION         CLEAR     56  54  91 CALM      29.98R
BLAIR          CLEAR     62  58  89 E6        29.97F
COLUMBUS *     PTCLDY    57  55  94 E3        29.98S
FREMONT        CLEAR     63  59  88 SE6       29.98R
TEKAMAH        CLEAR     56  54  93 CALM      29.98S
WAYNE          PTCLDY    60  57  91 CALM      29.98F
$$

NEZ050>053-065>068-078-088>093-180900-
SOUTHEAST NEBRASKA

CITY           SKY/WX    TMP DP  RH WIND       PRES   REMARKS
LINCOLN        PTCLDY    66  60  81 E8        29.97R
OMAHA EPPLEY   CLEAR     63  58  83 SE9       29.97F
BEATRICE       CLEAR     60  60  98 CALM      29.96R FOG
FALLS CITY     MOCLDY    62  62 100 E6        29.95S FOG
NEBRASKA CITY  PTCLDY    63  60  92 SE7       29.96F
PLATTSMOUTH    PTCLDY    60  58  92 E7        29.97F
$$

NEZ044-045-051>053-067-180900-
OMAHA AREA

CITY           SKY/WX    TMP DP  RH WIND       PRES   REMARKS
OMAHA EPPLEY   CLEAR     63  58  83 SE9       29.97F
BLAIR          CLEAR     62  58  89 E6        29.97F
FREMONT        CLEAR     63  59  88 SE6       29.98R
MILLARD        PTCLDY    64  60  87 CALM      29.98S
OFFUTT AFB     CLEAR     60  60 100 E6        29.97F
PLATTSMOUTH    PTCLDY    60  58  92 E7        29.97F
WAHOO          FAIR      60  56  89 S3        29.97S
$$


USA.gov is the U.S. government's official web portal to all federal, state and local government web resources and services.